[[{"header":{"parameterUnit":"m.s-1","parameterCategory":1,"la1":30.2991,"la2":30.254,"lo1":-89.0895,"lo2":-89.0444,"dy":0.0017,"dx":0.0017,"nx":28,"ny":28,"refTime":"2024-06-27T03:00:00:Z","depth":0,"parameterNumber":2,"parameterNumberName":"U-component_of_WINDS"},"data":[0,0,0,0,0,0,0,0,0,0,0,0,0,0,0,0,0,0,0,0,0,0,0,0,0,0,0,0,0,0,0,0,0,0,0,0,0,0,0,0,0,0,0,0,0,0,0,0,0,0,0,0,0,0,0,0,0,0,3.7,3.7,0,3.7064,3.7065,3.7065,3.7044,3.7043,3.7042,3.704,3.711,3.7113,3.7116,0,0,0,0,0,0,0,0,0,0,0,0,0,3.6864,3.6867,3.7,3.7,3.7001,3.7064,3.7065,3.7066,3.7045,3.7043,3.7041,3.704,3.7109,3.7113,3.7116,0,0,0,0,0,0,0,0,0,0,0,0,0,3.6925,3.6867,3.6999,3.6998,3.6999,3.7064,3.7065,3.7066,3.7045,3.7043,3.7041,3.7039,3.7108,3.7112,3.7117,3.7188,0,0,3.7131,3.7133,0,0,0,0,0,0,0,0,3.6922,3.693,3.6998,3.6998,3.6999,3.7044,3.7042,3.7107,3.7046,3.7028,3.704,3.7038,3.709,3.7096,3.7113,3.7191,3.7194,3.7132,3.7135,3.7137,3.7138,0,0,0,0,0,0,0,3.6918,3.6927,3.7025,3.6999,3.7,3.6996,3.7003,3.7054,3.707,3.7029,3.7028,3.7035,3.709,3.7108,3.7114,3.7195,3.7132,3.7136,3.7139,3.7141,3.7337,3.734,0,0,0,0,0,0,3.6912,3.6924,3.7023,3.7027,3.6954,3.7,3.7007,3.7032,3.7069,3.7073,3.7037,3.7034,3.7101,3.7109,3.7117,3.7203,3.7137,3.7141,3.7144,3.7335,3.7338,3.734,0,0,0,0,0,0,3.6909,3.6921,3.702,3.6975,3.6987,3.7005,3.7032,3.7034,3.7052,3.7075,3.7078,3.7052,3.71,3.711,3.717,3.7205,3.7143,3.7147,3.7332,3.7336,3.7339,3.7375,0,0,0,0,0,0,3.6906,3.692,3.6946,3.6976,3.699,3.7072,3.7034,3.7037,3.706,3.7057,3.709,3.7094,3.7099,3.7164,3.7175,3.721,3.7151,3.7329,3.7334,3.7338,3.7371,3.7379,3.7387,0,0,0,0,0,3.6901,3.6954,3.6947,3.6959,3.7022,3.7073,3.7082,3.7085,3.7063,3.709,3.7105,3.7093,3.72,3.717,3.7183,3.722,3.7327,3.7332,3.7338,3.7367,3.7378,3.7386,0,0,0,0,0,0,3.6927,3.6957,3.6951,3.7014,3.7042,3.707,3.7103,3.7096,3.7131,3.7126,3.7131,3.7138,3.7201,3.7217,3.7183,3.7292,3.726,3.7268,3.7278,3.7288,3.7296,3.729,3.7155,0,0,0,0,0,3.6941,3.6979,3.7004,3.7058,3.7072,3.7086,3.7108,3.7109,3.7137,3.7149,3.7168,3.7198,3.7238,3.7265,3.7303,3.7374,3.7382,3.7406,3.7414,3.7421,3.7427,3.7467,3.7479,3.7358,3.7358,3.7358,0,0,3.6969,3.699,3.7013,3.7064,3.7085,3.7125,3.7095,3.7139,3.717,3.7156,3.7213,3.723,3.7263,3.733,3.736,3.7345,3.7463,3.7427,3.7432,3.7435,3.7474,3.7485,3.7495,3.7362,3.7361,3.7361,0,0,3.704,3.7059,3.7107,3.7129,3.7161,3.7171,3.7183,3.7213,3.7223,3.7281,3.7272,3.731,3.7379,3.7403,3.7425,3.7509,3.75,3.7522,3.7563,3.7602,3.7612,3.762,3.765,3.7661,3.7529,3.7529,3.7529,0,3.707,3.7129,3.7133,3.7178,3.7201,3.7191,3.724,3.7262,3.7306,3.7323,3.7305,3.7393,3.7415,3.7487,3.7508,3.7526,3.7541,3.7517,3.761,3.7618,3.7626,3.7655,3.7666,3.7532,3.7531,3.7531,3.7531,0,3.7166,3.7208,3.7243,3.7284,3.7312,3.7359,3.7371,3.7399,3.7399,3.7411,3.7472,3.7498,3.7542,3.756,3.756,3.7634,3.7623,3.7608,3.7576,3.764,3.7667,3.7678,3.7535,3.7534,3.7533,3.7533,0,0,3.7252,3.7297,3.731,3.733,3.7366,3.7399,3.7448,3.749,3.7515,3.7547,3.7588,3.7648,3.7634,3.7659,3.7662,3.7697,3.7763,3.7678,3.7679,3.7692,3.7847,3.7857,3.7869,3.7758,3.776,3.7762,3.7844,0,3.7325,3.7408,3.7414,3.7489,3.7529,3.7522,3.7565,3.7593,3.7606,3.7643,3.7659,3.7701,3.7681,3.7696,3.773,3.7748,3.7794,3.7742,3.7797,3.7799,3.7787,3.7883,3.7894,3.7969,3.7854,3.7856,3.7857,0,3.7421,3.7455,3.7535,3.7568,3.7585,3.7622,3.7663,3.7698,3.7732,3.7739,3.7768,3.7767,3.7819,3.7787,3.7859,3.7824,3.7848,3.7861,3.7864,3.7867,3.783,3.7889,3.7993,3.8004,3.7874,3.7873,3.7872,0,3.7475,3.7542,3.7598,3.7616,3.7656,3.7683,3.7701,3.7732,3.7758,3.7795,3.7812,3.7855,3.7878,3.7912,3.7923,3.7899,3.7995,3.7964,3.8004,3.8003,3.8022,3.802,3.813,3.804,3.804,3.804,3.8039,0,3.7556,3.7604,3.7623,3.7658,3.7713,3.7722,3.7777,3.7794,3.7822,3.7861,3.7859,3.7896,3.791,3.795,3.796,3.8018,3.8029,3.8038,3.8039,3.8037,3.8035,3.8051,3.8045,3.8043,3.8042,3.8041,3.8041,0,3.7624,3.7639,3.77,3.7734,3.7744,3.7783,3.7813,3.7847,3.7862,3.7911,3.7924,3.7946,3.7994,3.8009,3.8067,3.8074,3.8142,3.814,3.813,3.813,3.8168,3.8164,3.829,3.8307,3.8207,3.8208,3.8209,0,3.7673,3.7711,3.775,3.7775,3.7794,3.7836,3.7863,3.7874,3.7902,3.7945,3.7974,3.8021,3.8059,3.8135,3.8157,3.8202,3.82,3.8242,3.8207,3.8204,3.82,3.8197,3.8201,3.8248,3.8249,3.8249,3.825,0,3.7759,3.7766,3.7804,3.7845,3.7877,3.7911,3.7943,3.7965,3.7981,3.8014,3.8062,3.8091,3.815,3.8197,3.8243,3.8264,3.826,3.8262,3.8273,3.8269,3.8262,3.8266,3.8146,3.8258,3.8257,3.8256,3.8256,3.8256,3.7819,3.7853,3.7885,3.7929,3.7955,3.7986,3.802,3.8039,3.8079,3.8127,3.8133,3.8185,3.822,3.8281,3.8304,3.8346,3.8335,3.8351,3.8355,3.8359,3.8361,3.8257,3.8355,3.8355,3.8355,3.8354,3.8354,0,3.7904,3.7926,3.7966,3.8011,3.8046,3.8041,3.8077,3.8107,3.8152,3.8185,3.8222,3.8279,3.8325,3.8353,3.8399,3.8428,3.8427,3.844,3.8437,3.8442,3.8369,3.8354,3.8439,3.8439,3.8439,3.8439,3.8439,3.8439,3.7952,3.8009,3.8019,3.809,3.8112,3.8162,3.8183,3.8213,3.8239,3.8302,3.834,3.8358,3.8389,3.8438,3.8481,3.8488,3.8505,3.8518,3.8524,3.8455,3.8447,3.8438,3.8424,3.8522,3.8522,3.8593,3.8594,3.8594]},{"header":{"parameterUnit":"m.s-1","parameterCategory":1,"la1":30.2991,"la2":30.254,"lo1":-89.0895,"lo2":-89.0444,"dy":0.0017,"dx":0.0017,"nx":28,"ny":28,"refTime":"2024-06-27T03:00:00:Z","depth":0,"parameterNumber":3,"parameterNumberName":"V-component_of_WINDS"},"data":[0,0,0,0,0,0,0,0,0,0,0,0,0,0,0,0,0,0,0,0,0,0,0,0,0,0,0,0,0,0,0,0,0,0,0,0,0,0,0,0,0,0,0,0,0,0,0,0,0,0,0,0,0,0,0,0,0,0,3.928,3.9282,0,3.9399,3.94,3.9402,3.944,3.9439,3.9439,3.9438,3.9551,3.9555,3.9558,0,0,0,0,0,0,0,0,0,0,0,0,0,3.9075,3.9079,3.928,3.9282,3.9283,3.9399,3.94,3.9402,3.944,3.9439,3.9439,3.9438,3.955,3.9554,3.9559,0,0,0,0,0,0,0,0,0,0,0,0,0,3.9176,3.908,3.928,3.9316,3.9321,3.9399,3.9401,3.9403,3.944,3.9439,3.9438,3.9438,3.9549,3.9554,3.9559,3.9607,0,0,3.9575,3.9577,0,0,0,0,0,0,0,0,3.917,3.9183,3.9309,3.9314,3.9319,3.9404,3.937,3.9471,3.944,3.9394,3.9438,3.9437,3.9502,3.9511,3.9535,3.9612,3.9617,3.9576,3.9579,3.9581,3.9583,0,0,0,0,0,0,0,3.9163,3.9178,3.9327,3.9311,3.9317,3.9323,3.9336,3.9389,3.9451,3.9398,3.9401,3.9415,3.9505,3.953,3.9538,3.9619,3.9575,3.958,3.9583,3.9585,3.9737,3.9738,0,0,0,0,0,0,3.9151,3.9172,3.9323,3.9331,3.9241,3.9327,3.9342,3.9377,3.9451,3.9461,3.9416,3.9417,3.9521,3.9532,3.9542,3.9601,3.9581,3.9586,3.9589,3.9736,3.9737,3.9738,0,0,0,0,0,0,3.9147,3.9164,3.9318,3.9252,3.9272,3.9332,3.9371,3.938,3.9406,3.9464,3.9474,3.9431,3.9521,3.9535,3.959,3.9606,3.9588,3.9593,3.9735,3.9737,3.9738,3.9721,0,0,0,0,0,0,3.9141,3.9163,3.9184,3.9253,3.9276,3.9368,3.9372,3.9383,3.9415,3.9418,3.9481,3.9491,3.9522,3.9582,3.9596,3.9613,3.9597,3.9734,3.9736,3.9737,3.972,3.9721,3.9722,0,0,0,0,0,3.9133,3.9174,3.9185,3.9203,3.9305,3.9369,3.9382,3.9419,3.9417,3.9437,3.9474,3.9489,3.9602,3.9588,3.9603,3.9622,3.9733,3.9735,3.9737,3.972,3.9721,3.9722,0,0,0,0,0,0,3.9103,3.9183,3.9197,3.9261,3.9308,3.9375,3.9402,3.942,3.9466,3.9466,3.9508,3.9521,3.9573,3.9603,3.9586,3.967,3.9668,3.9673,3.9649,3.9651,3.9652,3.9643,3.9601,0,0,0,0,0,3.9104,3.9153,3.9219,3.9269,3.9292,3.9343,3.9372,3.9397,3.9446,3.9465,3.9506,3.9551,3.9596,3.9625,3.967,3.9724,3.9737,3.9744,3.9745,3.9746,3.9749,3.9777,3.978,3.9745,3.9745,3.9745,0,0,3.9106,3.9156,3.9184,3.9264,3.9304,3.9349,3.9359,3.9408,3.9441,3.9472,3.9527,3.9558,3.961,3.9665,3.969,3.9691,3.9762,3.9748,3.9748,3.9752,3.9779,3.9783,3.9785,3.9746,3.9746,3.9746,0,0,3.9134,3.9178,3.9223,3.9262,3.9322,3.9355,3.9366,3.943,3.9453,3.9509,3.9532,3.957,3.9649,3.9684,3.9712,3.9749,3.9763,3.9762,3.9768,3.9794,3.9797,3.9799,3.9811,3.9814,3.9766,3.9766,3.9766,0,3.9129,3.9202,3.9244,3.9291,3.9324,3.9355,3.9399,3.9434,3.9504,3.9524,3.9524,3.9621,3.9659,3.972,3.9729,3.9751,3.9762,3.9756,3.9794,3.9797,3.9799,3.9811,3.9815,3.9765,3.9765,3.9765,3.9765,0,3.9191,3.9241,3.927,3.9339,3.9375,3.942,3.9465,3.9496,3.9516,3.9548,3.9603,3.9648,3.9702,3.9718,3.9738,3.9782,3.978,3.9786,3.9785,3.9802,3.9813,3.9817,3.9764,3.9765,3.9765,3.9765,0,0,3.9204,3.9295,3.9305,3.9335,3.9402,3.944,3.9484,3.9539,3.9564,3.961,3.9646,3.971,3.9716,3.9747,3.9771,3.9794,3.9818,3.9797,3.9799,3.9798,3.9865,3.986,3.9864,3.9827,3.9828,3.9829,3.986,0,3.9239,3.9325,3.9362,3.9428,3.9473,3.9501,3.954,3.9582,3.9612,3.9652,3.9683,3.9728,3.9733,3.9752,3.9776,3.981,3.9831,3.9808,3.9858,3.986,3.9844,3.987,3.9865,3.9893,3.9865,3.9866,3.9866,0,3.9292,3.9341,3.9412,3.9472,3.9492,3.9526,3.9578,3.9616,3.9663,3.9683,3.9718,3.974,3.9783,3.9779,3.9838,3.9821,3.9843,3.9862,3.9864,3.987,3.9864,3.9875,3.9903,3.9906,3.9874,3.9873,3.9873,0,3.9292,3.9375,3.9428,3.9454,3.9525,3.9548,3.9578,3.9625,3.9654,3.9698,3.9717,3.9764,3.9789,3.9824,3.9856,3.985,3.9911,3.991,3.9926,3.9925,3.9937,3.9936,3.9968,3.9953,3.9953,3.9953,3.9953,0,3.9327,3.9369,3.9429,3.9462,3.9508,3.9548,3.9592,3.9624,3.9665,3.9701,3.9727,3.976,3.9802,3.9838,3.9864,3.9907,3.9918,3.9933,3.9939,3.9931,3.9929,3.9946,3.9944,3.9954,3.9954,3.9953,3.9953,0,3.9336,3.9378,3.9437,3.95,3.9516,3.9547,3.9599,3.9629,3.966,3.9705,3.9717,3.9764,3.9809,3.9845,3.9902,3.9919,3.9964,3.9971,3.9949,3.9952,3.9966,3.9963,4.0009,4.0016,3.9997,3.9997,3.9997,0,3.9355,3.9388,3.9454,3.9482,3.9512,3.9556,3.9586,3.9626,3.9656,3.9711,3.9733,3.978,3.982,3.9889,3.9925,3.9969,3.9977,3.9989,3.9983,3.9973,3.9975,3.9972,3.9975,3.999,3.999,3.999,3.999,0,3.9384,3.9403,3.9448,3.9499,3.9535,3.9577,3.9619,3.9639,3.9684,3.9716,3.9763,3.9794,3.9853,3.9898,3.9944,3.9971,3.9987,3.9991,3.9997,3.9989,3.9974,3.998,3.9949,3.999,3.999,3.999,3.999,3.999,3.9397,3.9427,3.9478,3.9526,3.9562,3.96,3.9632,3.9666,3.9707,3.976,3.978,3.9827,3.987,3.9935,3.9961,3.9996,3.9998,4.0007,4.0009,4.001,4.0008,3.9968,4.0005,4.0005,4.0005,4.0005,4.0005,0,3.9426,3.946,3.9504,3.9563,3.9599,3.9614,3.966,3.9689,3.9731,3.9771,3.981,3.9862,3.9905,3.9945,3.9989,4.0009,4.0017,4.0019,4.0018,4.0023,4.0005,3.9996,4.0012,4.0012,4.0012,4.0012,4.0012,4.0012,3.9446,3.9497,3.9521,3.9588,3.9621,3.967,3.9695,3.9729,3.9761,3.9819,3.9856,3.9883,3.9921,3.9968,4.0007,4.0017,4.0031,4.0031,4.0043,4.0026,4.0025,4.0023,4.0014,4.0034,4.0034,4.0058,4.0058,4.0058]}]]